Paris, IL

5:59 PM CST on January 17, 2017 (GMT -0600)
Edgar County

Weather History for KPRG - September, 2013

Change the Weather History Date:

Monday, September 2, 2013

  Actual Average (KHUF) Record (KHUF)
Temperature  
Mean Temperature 74 °F -  
Max Temperature 83 °F 82 °F 98 °F (2011)
Min Temperature 64 °F 61 °F 45 °F (1987)
Cooling Degree Days 8    
Growing Degree Days 24 (Base 50)    
Moisture  
Dew Point 66 °F    
Average Humidity 79    
Maximum Humidity 98    
Minimum Humidity 50    
Precipitation  
Precipitation 0.05 in - - ()
Sea Level Pressure  
Sea Level Pressure 29.89 in    
Wind  
Wind Speed 5 mph (NNW)    
Max Wind Speed 9 mph    
Max Gust Speed -    
Visibility 9 miles    
Events      
Averages and records for this station are not official NWS values.
T = Trace of Precipitation, MM = Missing Value Source: NWS Daily Summary

Daily Weather History Graph

Daily Weather History Graph

Search for Another Location

Airport or City:

Trip Planner

Search our weather history database for the weather conditions in past years. The results will help you decide how hot, cold, wet, or windy it might be!

Date:

Astronomy

Sep. 02, 2013 Rise Set
Actual Time 6:19 AM CDT 7:19 PM CDT
Civil Twilight 5:52 AM CDT 7:47 PM CDT
Nautical Twilight 5:19 AM CDT 8:20 PM CDT
Astronomical Twilight 4:45 AM CDT 8:54 PM CDT
Moon 3:36 AM CDT (9/2) 5:32 PM CDT (9/2)
Length of Visible Light 13h 55m
Length of Day
12h 59m
Waning Crescent, 8% of the Moon is Illuminated
Sep 2
Waning Crescent
Sep 5
New
Sep 12
First Quarter
Sep 19
Full
Sep 26
Last Quarter

Hourly Weather History & Observations

Time (CDT) Temp. Heat Index Dew Point Humidity Pressure Visibility Wind Dir Wind Speed Gust Speed Precip Events Conditions
12:15 AM 70.0 °F - 68.2 °F 94% 29.84 in 5.0 mi SSW 3.5 mph - N/A   Clear
12:35 AM 69.3 °F - 68.2 °F 96% 29.84 in 5.0 mi SW 3.5 mph - 0.01 in   Clear
12:55 AM 69.1 °F - 68.0 °F 96% 29.83 in 5.0 mi SW 4.6 mph - 0.01 in   Clear
1:15 AM 69.4 °F - 68.4 °F 96% 29.82 in 5.0 mi SW 5.8 mph - N/A   Clear
1:35 AM 70.3 °F - 69.1 °F 96% 29.82 in 5.0 mi WSW 6.9 mph - N/A   Clear
1:55 AM 70.7 °F - 69.3 °F 95% 29.82 in 5.0 mi WSW 6.9 mph - 0.01 in   Clear
2:15 AM 70.7 °F - 69.4 °F 96% 29.82 in 5.0 mi WSW 5.8 mph - N/A   Clear
2:35 AM 70.5 °F - 69.3 °F 96% 29.83 in 5.0 mi West 5.8 mph - N/A   Clear
2:55 AM 70.0 °F - 69.1 °F 97% 29.82 in 4.0 mi West 5.8 mph - N/A   Clear
3:15 AM 69.4 °F - 68.5 °F 97% 29.83 in 4.0 mi West 3.5 mph - N/A   Clear
3:35 AM 69.1 °F - 68.4 °F 98% 29.83 in 5.0 mi West 4.6 mph - N/A   Clear
3:55 AM 68.7 °F - 67.8 °F 97% 29.83 in 5.0 mi West 4.6 mph - 0.01 in   Clear
4:15 AM 68.4 °F - 67.5 °F 97% 29.84 in 7.0 mi West 4.6 mph - N/A   Mostly Cloudy
4:35 AM 68.5 °F - 67.5 °F 96% 29.84 in 7.0 mi WNW 3.5 mph - N/A   Overcast
4:55 AM 68.0 °F - 66.4 °F 95% 29.84 in 7.0 mi WNW 3.5 mph - N/A   Mostly Cloudy
5:15 AM 67.6 °F - 66.4 °F 96% 29.85 in 7.0 mi WNW 4.6 mph - N/A   Scattered Clouds
5:35 AM 67.5 °F - 66.2 °F 96% 29.86 in 10.0 mi WNW 4.6 mph - N/A   Clear
5:55 AM 67.1 °F - 65.5 °F 95% 29.86 in 7.0 mi WNW 3.5 mph - 0.01 in   Clear
6:15 AM 66.6 °F - 65.3 °F 96% 29.87 in 7.0 mi WNW 4.6 mph - N/A   Scattered Clouds
6:35 AM 65.7 °F - 64.6 °F 96% 29.87 in 7.0 mi Calm Calm - N/A   Scattered Clouds
6:55 AM 65.7 °F - 64.8 °F 97% 29.87 in 7.0 mi WNW 3.5 mph - N/A   Clear
7:15 AM 66.6 °F - 65.5 °F 96% 29.88 in 10.0 mi WNW 5.8 mph - N/A   Clear
7:35 AM 67.1 °F - 65.7 °F 95% 29.89 in 10.0 mi NW 5.8 mph - N/A   Clear
7:55 AM 68.0 °F - 65.7 °F 92% 29.89 in 10.0 mi NNW 5.8 mph - N/A   Clear
8:15 AM 68.9 °F - 66.4 °F 92% 29.89 in 10.0 mi NNW 6.9 mph - N/A   Clear
8:35 AM 70.3 °F - 67.1 °F 89% 29.90 in 10.0 mi North 3.5 mph - 0.01 in   Clear
8:55 AM 71.8 °F - 67.1 °F 85% 29.91 in 10.0 mi North 3.5 mph - 0.01 in   Clear
9:15 AM 73.0 °F - 68.2 °F 85% 29.91 in 10.0 mi North 6.9 mph - N/A   Clear
9:35 AM 74.5 °F - 68.9 °F 83% 29.91 in 10.0 mi North 8.1 mph - N/A   Clear
9:55 AM 74.1 °F - 68.2 °F 82% 29.92 in 10.0 mi North 4.6 mph - N/A   Scattered Clouds
10:15 AM 75.2 °F - 69.1 °F 81% 29.92 in 10.0 mi North 3.5 mph - N/A   Scattered Clouds
10:35 AM 76.1 °F - 69.1 °F 79% 29.92 in 10.0 mi North 3.5 mph - N/A   Scattered Clouds
10:55 AM 76.6 °F - 69.1 °F 77% 29.92 in 10.0 mi North 5.8 mph - N/A   Mostly Cloudy
11:15 AM 78.3 °F - 69.6 °F 75% 29.92 in 10.0 mi North 6.9 mph - N/A   Mostly Cloudy
11:35 AM 79.7 °F - 69.6 °F 71% 29.92 in 10.0 mi NNE 3.5 mph - N/A   Scattered Clouds
11:55 AM 78.6 °F - 68.4 °F 71% 29.92 in 10.0 mi North 5.8 mph - N/A   Scattered Clouds
12:15 PM 81.0 °F 83.9 °F 68.5 °F 66% 29.92 in 10.0 mi NE 5.8 mph - N/A   Scattered Clouds
12:35 PM 79.7 °F - 67.1 °F 65% 29.92 in 10.0 mi North 3.5 mph - N/A   Scattered Clouds
12:55 PM 81.0 °F 83.2 °F 66.6 °F 61% 29.92 in 10.0 mi North 4.6 mph - N/A   Mostly Cloudy
1:15 PM 82.0 °F 84.5 °F 67.1 °F 60% 29.92 in 10.0 mi North 4.6 mph - N/A   Scattered Clouds
1:35 PM 82.6 °F 84.1 °F 64.6 °F 54% 29.91 in 10.0 mi NNW 5.8 mph - N/A   Clear
1:55 PM 82.6 °F 84.1 °F 64.6 °F 54% 29.91 in 10.0 mi NNW 6.9 mph - N/A   Scattered Clouds
2:15 PM 82.9 °F 84.6 °F 64.6 °F 54% 29.90 in 10.0 mi North 8.1 mph - N/A   Scattered Clouds
2:35 PM 83.1 °F 84.6 °F 64.4 °F 53% 29.90 in 10.0 mi NW 8.1 mph - N/A   Scattered Clouds
2:55 PM 82.6 °F 83.9 °F 64.0 °F 53% 29.90 in 10.0 mi NNW 9.2 mph - N/A   Clear
3:15 PM 83.3 °F 84.6 °F 64.2 °F 52% 29.90 in 10.0 mi NNW 8.1 mph - N/A   Scattered Clouds
3:35 PM 83.1 °F 84.4 °F 64.0 °F 52% 29.90 in 10.0 mi North 5.8 mph - N/A   Mostly Cloudy
3:55 PM 83.3 °F 84.3 °F 62.6 °F 50% 29.90 in 10.0 mi NNW 6.9 mph - N/A   Scattered Clouds
4:15 PM 82.6 °F 83.4 °F 62.4 °F 50% 29.89 in 10.0 mi NNW 8.1 mph - N/A   Scattered Clouds
4:35 PM 81.7 °F 82.4 °F 61.5 °F 50% 29.89 in 10.0 mi NW 8.1 mph - N/A   Clear
4:55 PM 81.9 °F 82.9 °F 62.6 °F 52% 29.89 in 10.0 mi NNW 8.1 mph - N/A   Clear
5:15 PM 81.5 °F 82.7 °F 62.6 °F 53% 29.89 in 10.0 mi North 6.9 mph - N/A   Clear
5:35 PM 81.0 °F 82.1 °F 62.2 °F 53% 29.89 in 10.0 mi NNW 8.1 mph - N/A   Clear
5:55 PM 80.1 °F 81.2 °F 61.9 °F 54% 29.89 in 10.0 mi NNW 5.8 mph - N/A   Clear
6:15 PM 79.2 °F - 62.8 °F 57% 29.90 in 10.0 mi NNW 3.5 mph - N/A   Clear
6:35 PM 77.9 °F - 63.9 °F 62% 29.89 in 10.0 mi NNW 3.5 mph - N/A   Clear
6:55 PM 75.9 °F - 64.6 °F 68% 29.90 in 10.0 mi Calm Calm - N/A   Clear
7:15 PM 73.6 °F - 64.4 °F 73% 29.90 in 10.0 mi Calm Calm - N/A   Clear
7:35 PM 69.4 °F - 65.1 °F 86% 29.90 in 10.0 mi Calm Calm - N/A   Clear
7:55 PM 68.9 °F - 63.7 °F 83% 29.91 in 10.0 mi NW 3.5 mph - N/A   Clear
8:15 PM 69.4 °F - 62.6 °F 79% 29.92 in 10.0 mi NNW 5.8 mph - N/A   Clear
8:35 PM 69.1 °F - 62.1 °F 78% 29.92 in 10.0 mi NNW 4.6 mph - N/A   Clear
8:55 PM 68.4 °F - 62.1 °F 80% 29.93 in 10.0 mi NNW 4.6 mph - N/A   Clear
9:15 PM 67.1 °F - 62.2 °F 84% 29.94 in 10.0 mi NNW 4.6 mph - N/A   Clear
9:35 PM 67.8 °F - 62.1 °F 82% 29.94 in 10.0 mi NNW 4.6 mph - N/A   Clear
9:55 PM 66.7 °F - 61.9 °F 84% 29.96 in 10.0 mi NNW 4.6 mph - N/A   Clear
10:15 PM 66.9 °F - 61.9 °F 84% 29.96 in 10.0 mi North 3.5 mph - N/A   Clear
10:35 PM 66.4 °F - 62.1 °F 86% 29.96 in 10.0 mi NNE 4.6 mph - N/A   Clear
10:55 PM 66.2 °F - 62.1 °F 86% 29.96 in 10.0 mi NNE 5.8 mph - N/A   Clear
11:15 PM 65.7 °F - 62.1 °F 88% 29.97 in 10.0 mi NNE 5.8 mph - N/A   Clear
11:35 PM 64.9 °F - 61.9 °F 90% 29.97 in 10.0 mi NNE 4.6 mph - N/A   Clear
11:55 PM 64.4 °F - 61.7 °F 91% 29.97 in 10.0 mi North 4.6 mph - N/A   Clear